Starlink 31183

operational
NORAD ID: 58747 Int'l Des: 2024-005 Owner: SPXS Country: US Constellation: starlink
LEOCIRCULAR

Über Starlink 31183

Beschreibung wird geladen...

Live-Position

3D-Globus wird geladen...

Nächste Überflüge

Höhenverlauf

Altitude vs Time

uPlot chart will show altitude changes over time

Zweizeiliger Elementsatz

1 58747U 24005V 25350.32628336 .00001145 00000-0 99829-4 0 9992
2 58747 43.0048 314.4291 0001057 258.4349 101.6374 15.02538676107984
Epoch: 16. Dez. 2025 • Age: 28 hours

Aktueller Status

Höhe 562.3 km
Geschwindigkeit 7.58 km/s
Subsatellitenpunkt -17.34°S, 116.82°W
Startdatum 7. Jan. 2024
Alter 1.9 years
Typ internet

Technische Details

Klassifizierung Payload
Masse 730.00 kg
Trockenmasse 700.00 kg
Gesamtmasse 730.00 kg
Länge 0.30 m
Durchmesser 4.10 m
Spannweite 29.00 m
Form Box + pan
Hersteller SPXS
Bus-Typ Starlink V2M
Phasenstatus In Orbit
Besitzer/Staat SPXS/US

Große Konstellationen

Loading constellations...